Year,Month,Day,Hour,Minute,Value (Times are PST for temperature in C)
2012,04,20,00,00,8.70
2012,04,20,00,01,8.70
2012,04,20,00,02,8.70
2012,04,20,00,03,8.70
2012,04,20,00,04,8.70
2012,04,20,00,05,8.70
2012,04,20,00,06,8.70
2012,04,20,00,07,8.70
2012,04,20,00,08,8.70
2012,04,20,00,09,8.70
2012,04,20,00,10,8.70
2012,04,20,00,11,8.60
2012,04,20,00,12,8.60
2012,04,20,00,13,8.60
2012,04,20,00,14,8.60
2012,04,20,00,15,8.60
2012,04,20,00,16,8.60
2012,04,20,00,17,8.60
2012,04,20,00,18,8.60
2012,04,20,00,19,8.60
2012,04,20,00,20,8.60
2012,04,20,00,21,8.60
2012,04,20,00,22,8.60
2012,04,20,00,23,8.60
2012,04,20,00,24,8.60
2012,04,20,00,25,8.60
2012,04,20,00,26,8.60
2012,04,20,00,27,8.60
2012,04,20,00,28,8.60
2012,04,20,00,29,8.60
2012,04,20,00,30,8.60
2012,04,20,00,31,8.60
2012,04,20,00,32,8.60
2012,04,20,00,33,8.60
2012,04,20,00,34,8.60
2012,04,20,00,35,8.60
2012,04,20,00,36,8.60
2012,04,20,00,37,8.50
2012,04,20,00,38,8.50
2012,04,20,00,39,8.50
2012,04,20,00,40,8.50
2012,04,20,00,41,8.40
2012,04,20,00,42,8.40
2012,04,20,00,43,8.40
2012,04,20,00,44,8.40
2012,04,20,00,45,8.30
2012,04,20,00,46,8.30
2012,04,20,00,47,8.30
2012,04,20,00,48,8.20
2012,04,20,00,49,8.20
2012,04,20,00,50,8.20
2012,04,20,00,51,8.10
2012,04,20,00,52,8.10
2012,04,20,00,53,8.00
2012,04,20,00,54,8.00
2012,04,20,00,55,7.90
2012,04,20,00,56,7.90
2012,04,20,00,57,7.90
2012,04,20,00,58,7.80
2012,04,20,00,59,7.80
2012,04,20,01,00,7.80
2012,04,20,01,01,7.80
2012,04,20,01,02,7.80
2012,04,20,01,03,7.70
2012,04,20,01,04,7.70
2012,04,20,01,05,7.70
2012,04,20,01,06,7.70
2012,04,20,01,07,7.70
2012,04,20,01,08,7.70
2012,04,20,01,09,7.60
2012,04,20,01,10,7.60
2012,04,20,01,11,7.60
2012,04,20,01,12,7.60
2012,04,20,01,13,7.60
2012,04,20,01,14,7.60
2012,04,20,01,15,7.60
2012,04,20,01,16,7.60
2012,04,20,01,17,7.60
2012,04,20,01,18,7.60
2012,04,20,01,19,7.60
2012,04,20,01,20,7.60
2012,04,20,01,21,7.60
2012,04,20,01,22,7.60
2012,04,20,01,23,7.60
2012,04,20,01,24,7.60
2012,04,20,01,25,7.60
2012,04,20,01,26,7.60
2012,04,20,01,27,7.60
2012,04,20,01,28,7.60
2012,04,20,01,29,7.60
2012,04,20,01,30,7.60
2012,04,20,01,31,7.60
2012,04,20,01,32,7.60
2012,04,20,01,33,7.60
2012,04,20,01,34,7.60
2012,04,20,01,35,7.60
2012,04,20,01,36,7.60
2012,04,20,01,37,7.60
2012,04,20,01,38,7.60
2012,04,20,01,39,7.60
2012,04,20,01,40,7.60
2012,04,20,01,41,7.60
2012,04,20,01,42,7.60
2012,04,20,01,43,7.60
2012,04,20,01,44,7.60
2012,04,20,01,45,7.60
2012,04,20,01,46,7.60
2012,04,20,01,47,7.50
2012,04,20,01,48,7.50
2012,04,20,01,49,7.50
2012,04,20,01,50,7.40
2012,04,20,01,51,7.40
2012,04,20,01,52,7.40
2012,04,20,01,53,7.30
2012,04,20,01,54,7.30
2012,04,20,01,55,7.30
2012,04,20,01,56,7.30
2012,04,20,01,57,7.20
2012,04,20,01,58,7.20
2012,04,20,01,59,7.20
2012,04,20,02,00,7.20
2012,04,20,02,01,7.10
2012,04,20,02,02,7.10
2012,04,20,02,03,7.10
2012,04,20,02,04,7.10
2012,04,20,02,05,7.10
2012,04,20,02,06,7.10
2012,04,20,02,07,7.00
2012,04,20,02,08,7.00
2012,04,20,02,09,7.00
2012,04,20,02,10,7.00
2012,04,20,02,11,7.00
2012,04,20,02,12,7.00
2012,04,20,02,13,7.00
2012,04,20,02,14,7.00
2012,04,20,02,15,7.00
2012,04,20,02,16,6.90
2012,04,20,02,17,6.90
2012,04,20,02,18,6.90
2012,04,20,02,19,6.90
2012,04,20,02,20,6.90
2012,04,20,02,21,6.90
2012,04,20,02,22,6.90
2012,04,20,02,23,6.90
2012,04,20,02,24,6.90
2012,04,20,02,25,6.90
2012,04,20,02,26,6.90
2012,04,20,02,27,6.90
2012,04,20,02,28,6.90
2012,04,20,02,29,6.90
2012,04,20,02,30,7.00
2012,04,20,02,31,7.00
2012,04,20,02,32,7.00
2012,04,20,02,33,7.00
2012,04,20,02,34,7.00
2012,04,20,02,35,7.00
2012,04,20,02,36,7.00
2012,04,20,02,37,7.00
2012,04,20,02,38,7.00
2012,04,20,02,39,7.00
2012,04,20,02,40,7.00
2012,04,20,02,41,7.00
2012,04,20,02,42,7.10
2012,04,20,02,43,7.10
2012,04,20,02,44,7.10
2012,04,20,02,45,7.10
2012,04,20,02,46,7.10
2012,04,20,02,47,7.00
2012,04,20,02,48,7.00
2012,04,20,02,49,7.00
2012,04,20,02,50,7.00
2012,04,20,02,51,7.00
2012,04,20,02,52,7.00
2012,04,20,02,53,7.10
2012,04,20,02,54,7.10
2012,04,20,02,55,7.10
2012,04,20,02,56,7.10
2012,04,20,02,57,7.10
2012,04,20,02,58,7.10
2012,04,20,02,59,7.10
2012,04,20,03,00,7.10
2012,04,20,03,01,7.10
2012,04,20,03,02,7.10
2012,04,20,03,03,7.10
2012,04,20,03,04,7.10
2012,04,20,03,05,7.10
2012,04,20,03,06,7.10
2012,04,20,03,07,7.10
2012,04,20,03,08,7.20
2012,04,20,03,09,7.20
2012,04,20,03,10,7.20
2012,04,20,03,11,7.20
2012,04,20,03,12,7.20
2012,04,20,03,13,7.20
2012,04,20,03,14,7.30
2012,04,20,03,15,7.30
2012,04,20,03,16,7.30
2012,04,20,03,17,7.30
2012,04,20,03,18,7.30
2012,04,20,03,19,7.30
2012,04,20,03,20,7.30
2012,04,20,03,21,7.30
2012,04,20,03,22,7.30
2012,04,20,03,23,7.30
2012,04,20,03,24,7.20
2012,04,20,03,25,7.20
2012,04,20,03,26,7.20
2012,04,20,03,27,7.20
2012,04,20,03,28,7.20
2012,04,20,03,29,7.30
2012,04,20,03,30,7.30
2012,04,20,03,31,7.30
2012,04,20,03,32,7.30
2012,04,20,03,33,7.30
2012,04,20,03,34,7.30
2012,04,20,03,35,7.30
2012,04,20,03,36,7.30
2012,04,20,03,37,7.30
2012,04,20,03,38,7.30
2012,04,20,03,39,7.30
2012,04,20,03,40,7.30
2012,04,20,03,41,7.30
2012,04,20,03,42,7.30
2012,04,20,03,43,7.30
2012,04,20,03,44,7.30
2012,04,20,03,45,7.30
2012,04,20,03,46,7.20
2012,04,20,03,47,7.20
2012,04,20,03,48,7.20
2012,04,20,03,49,7.20
2012,04,20,03,50,7.20
2012,04,20,03,51,7.20
2012,04,20,03,52,7.20
2012,04,20,03,53,7.20
2012,04,20,03,54,7.20
2012,04,20,03,55,7.20
2012,04,20,03,56,7.20
2012,04,20,03,57,7.20
2012,04,20,03,58,7.30
2012,04,20,03,59,7.30
2012,04,20,04,00,7.30
2012,04,20,04,01,7.30
2012,04,20,04,02,7.30
2012,04,20,04,03,7.20
2012,04,20,04,04,7.20
2012,04,20,04,05,7.20
2012,04,20,04,06,7.20
2012,04,20,04,07,7.20
2012,04,20,04,08,7.20
2012,04,20,04,09,7.20
2012,04,20,04,10,7.20
2012,04,20,04,11,7.20
2012,04,20,04,12,7.20
2012,04,20,04,13,7.20
2012,04,20,04,14,7.20
2012,04,20,04,15,7.20
2012,04,20,04,16,7.20
2012,04,20,04,17,7.20
2012,04,20,04,18,7.20
2012,04,20,04,19,7.20
2012,04,20,04,20,7.10
2012,04,20,04,21,7.10
2012,04,20,04,22,7.10
2012,04,20,04,23,7.10
2012,04,20,04,24,7.10
2012,04,20,04,25,7.10
2012,04,20,04,26,7.10
2012,04,20,04,27,7.10
2012,04,20,04,28,7.10
2012,04,20,04,29,7.10
2012,04,20,04,30,7.10
2012,04,20,04,31,7.10
2012,04,20,04,32,7.00
2012,04,20,04,33,7.00
2012,04,20,04,34,7.00
2012,04,20,04,35,7.00
2012,04,20,04,36,7.00
2012,04,20,04,37,6.90
2012,04,20,04,38,6.90
2012,04,20,04,39,6.80
2012,04,20,04,40,6.80
2012,04,20,04,41,6.80
2012,04,20,04,42,6.80
2012,04,20,04,43,6.80
2012,04,20,04,44,6.70
2012,04,20,04,45,6.70
2012,04,20,04,46,6.70
2012,04,20,04,47,6.70
2012,04,20,04,48,6.70
2012,04,20,04,49,6.70
2012,04,20,04,50,6.60
2012,04,20,04,51,6.60
2012,04,20,04,52,6.60
2012,04,20,04,53,6.60
2012,04,20,04,54,6.60
2012,04,20,04,55,6.60
2012,04,20,04,56,6.60
2012,04,20,04,57,6.60
2012,04,20,04,58,6.60
2012,04,20,04,59,6.60
2012,04,20,05,00,6.60
2012,04,20,05,01,6.60
2012,04,20,05,02,6.60
2012,04,20,05,03,6.60
2012,04,20,05,04,6.60
2012,04,20,05,05,6.60
2012,04,20,05,06,6.60
2012,04,20,05,07,6.60
2012,04,20,05,08,6.60
2012,04,20,05,09,6.60
2012,04,20,05,10,6.60
2012,04,20,05,11,6.60
2012,04,20,05,12,6.60
2012,04,20,05,13,6.60
2012,04,20,05,14,6.60
2012,04,20,05,15,6.60
2012,04,20,05,16,6.60
2012,04,20,05,17,6.60
2012,04,20,05,18,6.60
2012,04,20,05,19,6.50
2012,04,20,05,20,6.60
2012,04,20,05,21,6.60
2012,04,20,05,22,6.50
2012,04,20,05,23,6.60
2012,04,20,05,24,6.60
2012,04,20,05,25,6.60
2012,04,20,05,26,6.50
2012,04,20,05,27,6.50
2012,04,20,05,28,6.60
2012,04,20,05,29,6.60
2012,04,20,05,30,6.50
2012,04,20,05,31,6.40
2012,04,20,05,32,6.40
2012,04,20,05,33,6.40
2012,04,20,05,34,6.40
2012,04,20,05,35,6.40
2012,04,20,05,36,6.40
2012,04,20,05,37,6.40
2012,04,20,05,38,6.40
2012,04,20,05,39,6.40
2012,04,20,05,40,6.40
2012,04,20,05,41,6.40
2012,04,20,05,42,6.40
2012,04,20,05,43,6.40
2012,04,20,05,44,6.40
2012,04,20,05,45,6.40
2012,04,20,05,46,6.40
2012,04,20,05,47,6.40
2012,04,20,05,48,6.40
2012,04,20,05,49,6.40
2012,04,20,05,50,6.40
2012,04,20,05,51,6.40
2012,04,20,05,52,6.40
2012,04,20,05,53,6.40
2012,04,20,05,54,6.40
2012,04,20,05,55,6.40
2012,04,20,05,56,6.40
2012,04,20,05,57,6.50
2012,04,20,05,58,6.60
2012,04,20,05,59,6.60
2012,04,20,06,00,6.60
2012,04,20,06,01,6.60
2012,04,20,06,02,6.60
2012,04,20,06,03,6.60
2012,04,20,06,04,6.60
2012,04,20,06,05,6.60
2012,04,20,06,06,6.60
2012,04,20,06,07,6.60
2012,04,20,06,08,6.50
2012,04,20,06,09,6.40
2012,04,20,06,10,6.40
2012,04,20,06,11,6.40
2012,04,20,06,12,6.40
2012,04,20,06,13,6.40
2012,04,20,06,14,6.40
2012,04,20,06,15,6.40
2012,04,20,06,16,6.40
2012,04,20,06,17,6.40
2012,04,20,06,18,6.40
2012,04,20,06,19,6.40
2012,04,20,06,20,6.40
2012,04,20,06,21,6.40
2012,04,20,06,22,6.50
2012,04,20,06,23,6.60
2012,04,20,06,24,6.60
2012,04,20,06,25,6.60
2012,04,20,06,26,6.50
2012,04,20,06,27,6.50
2012,04,20,06,28,6.40
2012,04,20,06,29,6.40
2012,04,20,06,30,6.40
2012,04,20,06,31,6.40
2012,04,20,06,32,6.40
2012,04,20,06,33,6.40
2012,04,20,06,34,6.40
2012,04,20,06,35,6.40
2012,04,20,06,36,6.40
2012,04,20,06,37,6.40
2012,04,20,06,38,6.40
2012,04,20,06,39,6.40
2012,04,20,06,40,6.40
2012,04,20,06,41,6.40
2012,04,20,06,42,6.40
2012,04,20,06,43,6.40
2012,04,20,06,44,6.40
2012,04,20,06,45,6.40
2012,04,20,06,46,6.40
2012,04,20,06,47,6.40
2012,04,20,06,48,6.60
2012,04,20,06,49,6.60
2012,04,20,06,50,6.60
2012,04,20,06,51,6.60
2012,04,20,06,52,6.60
2012,04,20,06,53,6.60
2012,04,20,06,54,6.60
2012,04,20,06,55,6.60
2012,04,20,06,56,6.60
2012,04,20,06,57,6.60
2012,04,20,06,58,6.60
2012,04,20,06,59,6.60
2012,04,20,07,00,6.60
2012,04,20,07,01,6.60
2012,04,20,07,02,6.60
2012,04,20,07,03,6.60
2012,04,20,07,04,6.60
2012,04,20,07,05,6.60
2012,04,20,07,06,6.60
2012,04,20,07,07,6.60
2012,04,20,07,08,6.60
2012,04,20,07,09,6.60
2012,04,20,07,10,6.60
2012,04,20,07,11,6.60
2012,04,20,07,12,6.60
2012,04,20,07,13,6.60
2012,04,20,07,14,6.60
2012,04,20,07,15,6.60
2012,04,20,07,16,6.60
2012,04,20,07,17,6.60
2012,04,20,07,18,6.60
2012,04,20,07,19,6.60
2012,04,20,07,20,6.60
2012,04,20,07,21,6.60
2012,04,20,07,22,6.60
2012,04,20,07,23,6.60
2012,04,20,07,24,6.60
2012,04,20,07,25,6.60
2012,04,20,07,26,6.60
2012,04,20,07,27,6.60
2012,04,20,07,28,6.60
2012,04,20,07,29,6.60
2012,04,20,07,30,6.60
2012,04,20,07,31,6.60
2012,04,20,07,32,6.60
2012,04,20,07,33,6.60
2012,04,20,07,34,6.60
2012,04,20,07,35,6.60
2012,04,20,07,36,6.60
2012,04,20,07,37,6.70
2012,04,20,07,38,6.70
2012,04,20,07,39,6.70
2012,04,20,07,40,6.70
2012,04,20,07,41,6.80
2012,04,20,07,42,6.80
2012,04,20,07,43,6.80
2012,04,20,07,44,6.80
2012,04,20,07,45,6.80
2012,04,20,07,46,6.80
2012,04,20,07,47,6.80
2012,04,20,07,48,6.80
2012,04,20,07,49,6.80
2012,04,20,07,50,6.80
2012,04,20,07,51,6.80
2012,04,20,07,52,6.80
2012,04,20,07,53,6.80
2012,04,20,07,54,6.80
2012,04,20,07,55,6.80
2012,04,20,07,56,6.80
2012,04,20,07,57,6.80
2012,04,20,07,58,6.80
2012,04,20,07,59,6.80
2012,04,20,08,00,6.80
2012,04,20,08,01,6.80
2012,04,20,08,02,6.80
2012,04,20,08,03,6.80
2012,04,20,08,04,6.90
2012,04,20,08,05,7.00
2012,04,20,08,06,7.00
2012,04,20,08,07,7.10
2012,04,20,08,08,7.10
2012,04,20,08,09,7.20
2012,04,20,08,10,7.30
2012,04,20,08,11,7.30
2012,04,20,08,12,7.30
2012,04,20,08,13,7.30
2012,04,20,08,14,7.40
2012,04,20,08,15,7.50
2012,04,20,08,16,7.60
2012,04,20,08,17,7.60
2012,04,20,08,18,7.60
2012,04,20,08,19,7.60
2012,04,20,08,20,7.60
2012,04,20,08,21,7.60
2012,04,20,08,22,7.60
2012,04,20,08,23,7.60
2012,04,20,08,24,7.70
2012,04,20,08,25,7.70
2012,04,20,08,26,7.70
2012,04,20,08,27,7.70
2012,04,20,08,28,7.70
2012,04,20,08,29,7.80
2012,04,20,08,30,7.80
2012,04,20,08,31,7.80
2012,04,20,08,32,7.80
2012,04,20,08,33,7.80
2012,04,20,08,34,7.80
2012,04,20,08,35,7.80
2012,04,20,08,36,7.80
2012,04,20,08,37,7.90
2012,04,20,08,38,8.00
2012,04,20,08,39,8.10
2012,04,20,08,40,8.20
2012,04,20,08,41,8.20
2012,04,20,08,42,8.20
2012,04,20,08,43,8.20
2012,04,20,08,44,8.20
2012,04,20,08,45,8.30
2012,04,20,08,46,8.30
2012,04,20,08,47,8.40
2012,04,20,08,48,8.40
2012,04,20,08,49,8.40
2012,04,20,08,50,8.30
2012,04,20,08,51,8.30
2012,04,20,08,52,8.30
2012,04,20,08,53,8.30
2012,04,20,08,54,8.40
2012,04,20,08,55,8.50
2012,04,20,08,56,8.50
2012,04,20,08,57,8.50
2012,04,20,08,58,8.60
2012,04,20,08,59,8.60
2012,04,20,09,00,8.60
2012,04,20,09,01,8.70
2012,04,20,09,02,8.90
2012,04,20,09,03,8.90
2012,04,20,09,04,8.90
2012,04,20,09,05,9.00
2012,04,20,09,06,9.10
2012,04,20,09,07,9.20
2012,04,20,09,08,9.20
2012,04,20,09,09,9.20
2012,04,20,09,10,9.10
2012,04,20,09,11,9.10
2012,04,20,09,12,9.10
2012,04,20,09,13,9.10
2012,04,20,09,14,9.00
2012,04,20,09,15,9.00
2012,04,20,09,16,9.00
2012,04,20,09,17,9.00
2012,04,20,09,18,9.00
2012,04,20,09,19,9.10
2012,04,20,09,20,9.10
2012,04,20,09,21,9.20
2012,04,20,09,22,9.20
2012,04,20,09,23,9.30
2012,04,20,09,24,9.40
2012,04,20,09,25,9.40
2012,04,20,09,26,9.50
2012,04,20,09,27,9.70
2012,04,20,09,28,9.60
2012,04,20,09,29,9.60
2012,04,20,09,30,9.60
2012,04,20,09,31,9.60
2012,04,20,09,32,9.60
2012,04,20,09,33,9.70
2012,04,20,09,34,9.80
2012,04,20,09,35,9.90
2012,04,20,09,36,9.80
2012,04,20,09,37,9.90
2012,04,20,09,38,9.90
2012,04,20,09,39,9.90
2012,04,20,09,40,9.90
2012,04,20,09,41,9.80
2012,04,20,09,42,9.70
2012,04,20,09,43,9.70
2012,04,20,09,44,9.70
2012,04,20,09,45,9.70
2012,04,20,09,46,9.70
2012,04,20,09,47,9.80
2012,04,20,09,48,9.90
2012,04,20,09,49,9.90
2012,04,20,09,50,9.90
2012,04,20,09,51,10.00
2012,04,20,09,52,10.00
2012,04,20,09,53,10.10
2012,04,20,09,54,10.10
2012,04,20,09,55,10.10
2012,04,20,09,56,10.10
2012,04,20,09,57,10.10
2012,04,20,09,58,10.00
2012,04,20,09,59,10.10
2012,04,20,10,00,10.10
2012,04,20,10,01,10.20
2012,04,20,10,02,10.30
2012,04,20,10,03,10.30
2012,04,20,10,04,10.40
2012,04,20,10,05,10.40
2012,04,20,10,06,10.40
2012,04,20,10,07,10.40
2012,04,20,10,08,10.40
2012,04,20,10,09,10.40
2012,04,20,10,10,10.50
2012,04,20,10,11,10.60
2012,04,20,10,12,10.60
2012,04,20,10,13,10.60
2012,04,20,10,14,10.50
2012,04,20,10,15,10.40
2012,04,20,10,16,10.50
2012,04,20,10,17,10.60
2012,04,20,10,18,10.70
2012,04,20,10,19,10.80
2012,04,20,10,20,10.90
2012,04,20,10,21,11.00
2012,04,20,10,22,11.10
2012,04,20,10,23,11.10
2012,04,20,10,24,11.10
2012,04,20,10,25,11.10
2012,04,20,10,26,11.10
2012,04,20,10,27,11.10
2012,04,20,10,28,11.10
2012,04,20,10,29,11.10
2012,04,20,10,30,11.10
2012,04,20,10,31,11.10
2012,04,20,10,32,11.10
2012,04,20,10,33,11.10
2012,04,20,10,34,11.10
2012,04,20,10,35,10.90
2012,04,20,10,36,10.90
2012,04,20,10,37,10.90
2012,04,20,10,38,10.80
2012,04,20,10,39,10.80
2012,04,20,10,40,10.80
2012,04,20,10,41,10.80
2012,04,20,10,42,10.70
2012,04,20,10,43,10.60
2012,04,20,10,44,10.60
2012,04,20,10,45,10.60
2012,04,20,10,46,10.60
2012,04,20,10,47,10.60
2012,04,20,10,48,10.60
2012,04,20,10,49,10.60
2012,04,20,10,50,10.60
2012,04,20,10,51,10.60
2012,04,20,10,52,10.60
2012,04,20,10,53,10.70
2012,04,20,10,54,10.70
2012,04,20,10,55,10.70
2012,04,20,10,56,10.60
2012,04,20,10,57,10.60
2012,04,20,10,58,10.70
2012,04,20,10,59,10.80
2012,04,20,11,00,10.80
2012,04,20,11,01,10.90
2012,04,20,11,02,10.80
2012,04,20,11,03,10.80
2012,04,20,11,04,10.70
2012,04,20,11,05,10.60
2012,04,20,11,06,10.60
2012,04,20,11,07,10.60
2012,04,20,11,08,10.60
2012,04,20,11,09,10.60
2012,04,20,11,10,10.60
2012,04,20,11,11,10.60
2012,04,20,11,12,10.60
2012,04,20,11,13,10.70
2012,04,20,11,14,10.70
2012,04,20,11,15,10.80
2012,04,20,11,16,10.80
2012,04,20,11,17,10.80
2012,04,20,11,18,10.80
2012,04,20,11,19,10.80
2012,04,20,11,20,10.80
2012,04,20,11,21,10.90
2012,04,20,11,22,10.90
2012,04,20,11,23,10.90
2012,04,20,11,24,10.90
2012,04,20,11,25,10.90
2012,04,20,11,26,11.00
2012,04,20,11,27,11.10
2012,04,20,11,28,11.10
2012,04,20,11,29,11.10
2012,04,20,11,30,11.00
2012,04,20,11,31,10.90
2012,04,20,11,32,11.00
2012,04,20,11,33,11.10
2012,04,20,11,34,11.00
2012,04,20,11,35,11.10
2012,04,20,11,36,11.10
2012,04,20,11,37,11.20
2012,04,20,11,38,11.20
2012,04,20,11,39,11.20
2012,04,20,11,40,11.10
2012,04,20,11,41,11.10
2012,04,20,11,42,11.00
2012,04,20,11,43,10.90
2012,04,20,11,44,10.90
2012,04,20,11,45,10.90
2012,04,20,11,46,10.90
2012,04,20,11,47,10.90
2012,04,20,11,48,10.90
2012,04,20,11,49,10.90
2012,04,20,11,50,10.90
2012,04,20,11,51,10.90
2012,04,20,11,52,10.90
2012,04,20,11,53,10.90
2012,04,20,11,54,10.90
2012,04,20,11,55,10.90
2012,04,20,11,56,10.90
2012,04,20,11,57,10.90
2012,04,20,11,58,10.90
2012,04,20,11,59,11.00
2012,04,20,12,00,11.10
2012,04,20,12,01,11.10
2012,04,20,12,02,11.20
2012,04,20,12,03,11.20
2012,04,20,12,04,11.20
2012,04,20,12,05,11.20
2012,04,20,12,06,11.20
2012,04,20,12,07,11.10
2012,04,20,12,08,11.10
2012,04,20,12,09,11.10
2012,04,20,12,10,11.20
2012,04,20,12,11,11.30
2012,04,20,12,12,11.40
2012,04,20,12,13,11.40
2012,04,20,12,14,11.40
2012,04,20,12,15,11.40
2012,04,20,12,16,11.50
2012,04,20,12,17,11.60
2012,04,20,12,18,11.60
2012,04,20,12,19,11.70
2012,04,20,12,20,11.80
2012,04,20,12,21,11.80
2012,04,20,12,22,11.80
2012,04,20,12,23,11.80
2012,04,20,12,24,11.80
2012,04,20,12,25,11.80
2012,04,20,12,26,11.80
2012,04,20,12,27,11.80
2012,04,20,12,28,11.80
2012,04,20,12,29,11.90
2012,04,20,12,30,12.00
2012,04,20,12,31,12.10
2012,04,20,12,32,12.10
2012,04,20,12,33,12.10
2012,04,20,12,34,12.20
2012,04,20,12,35,12.30
2012,04,20,12,36,12.30
2012,04,20,12,37,12.30
2012,04,20,12,38,12.40
2012,04,20,12,39,12.50
2012,04,20,12,40,12.50
2012,04,20,12,41,12.60
2012,04,20,12,42,12.50
2012,04,20,12,43,12.50
2012,04,20,12,44,12.50
2012,04,20,12,45,12.60
2012,04,20,12,46,12.60
2012,04,20,12,47,12.60
2012,04,20,12,48,12.50
2012,04,20,12,49,12.40
2012,04,20,12,50,12.30
2012,04,20,12,51,12.30
2012,04,20,12,52,12.30
2012,04,20,12,53,12.30
2012,04,20,12,54,12.20
2012,04,20,12,55,12.20
2012,04,20,12,56,12.10
2012,04,20,12,57,12.10
2012,04,20,12,58,12.10
2012,04,20,12,59,12.10
2012,04,20,13,00,12.10
2012,04,20,13,01,12.10
2012,04,20,13,02,12.10
2012,04,20,13,03,12.10
2012,04,20,13,04,12.20
2012,04,20,13,05,12.20
2012,04,20,13,06,12.30
2012,04,20,13,07,12.40
2012,04,20,13,08,12.40
2012,04,20,13,09,12.50
2012,04,20,13,10,12.60
2012,04,20,13,11,12.70
2012,04,20,13,12,12.80
2012,04,20,13,13,12.80
2012,04,20,13,14,12.80
2012,04,20,13,15,12.80
2012,04,20,13,16,12.80
2012,04,20,13,17,12.80
2012,04,20,13,18,12.70
2012,04,20,13,19,12.70
2012,04,20,13,20,12.70
2012,04,20,13,21,12.70
2012,04,20,13,22,12.70
2012,04,20,13,23,12.80
2012,04,20,13,24,12.80
2012,04,20,13,25,12.80
2012,04,20,13,26,12.80
2012,04,20,13,27,12.80
2012,04,20,13,28,12.80
2012,04,20,13,29,12.80
2012,04,20,13,30,12.80
2012,04,20,13,31,12.90
2012,04,20,13,32,12.90
2012,04,20,13,33,12.90
2012,04,20,13,34,12.90
2012,04,20,13,35,13.00
2012,04,20,13,36,13.00
2012,04,20,13,37,13.00
2012,04,20,13,38,13.00
2012,04,20,13,39,13.10
2012,04,20,13,40,13.20
2012,04,20,13,41,13.30
2012,04,20,13,42,13.30
2012,04,20,13,43,13.40
2012,04,20,13,44,13.40
2012,04,20,13,45,13.40
2012,04,20,13,46,13.50
2012,04,20,13,47,13.50
2012,04,20,13,48,13.40
2012,04,20,13,49,13.30
2012,04,20,13,50,13.30
2012,04,20,13,51,13.30
2012,04,20,13,52,13.40
2012,04,20,13,53,13.40
2012,04,20,13,54,13.40
2012,04,20,13,55,13.30
2012,04,20,13,56,13.30
2012,04,20,13,57,13.30
2012,04,20,13,58,13.40
2012,04,20,13,59,13.30
2012,04,20,14,00,13.30
2012,04,20,14,01,13.30
2012,04,20,14,02,13.40
2012,04,20,14,03,13.50
2012,04,20,14,04,13.50
2012,04,20,14,05,13.50
2012,04,20,14,06,13.60
2012,04,20,14,07,13.70
2012,04,20,14,08,13.70
2012,04,20,14,09,13.80
2012,04,20,14,10,13.70
2012,04,20,14,11,13.70
2012,04,20,14,12,13.60
2012,04,20,14,13,13.60
2012,04,20,14,14,13.70
2012,04,20,14,15,13.80
2012,04,20,14,16,13.80
2012,04,20,14,17,13.90
2012,04,20,14,18,13.90
2012,04,20,14,19,13.80
2012,04,20,14,20,13.80
2012,04,20,14,21,13.80
2012,04,20,14,22,13.70
2012,04,20,14,23,13.70
2012,04,20,14,24,13.70
2012,04,20,14,25,13.70
2012,04,20,14,26,13.70
2012,04,20,14,27,13.80
2012,04,20,14,28,13.80
2012,04,20,14,29,13.80
2012,04,20,14,30,13.80
2012,04,20,14,31,13.80
2012,04,20,14,32,13.90
2012,04,20,14,33,13.80
2012,04,20,14,34,13.90
2012,04,20,14,35,13.90
2012,04,20,14,36,13.90
2012,04,20,14,37,13.90
2012,04,20,14,38,14.00
2012,04,20,14,39,14.00
2012,04,20,14,40,14.10
2012,04,20,14,41,14.20
2012,04,20,14,42,14.20
2012,04,20,14,43,14.20
2012,04,20,14,44,14.00
2012,04,20,14,45,14.00
2012,04,20,14,46,13.90
2012,04,20,14,47,13.80
2012,04,20,14,48,13.70
2012,04,20,14,49,13.70
2012,04,20,14,50,13.70
2012,04,20,14,51,13.60
2012,04,20,14,52,13.60
2012,04,20,14,53,13.60
2012,04,20,14,54,13.70
2012,04,20,14,55,13.70
2012,04,20,14,56,13.80
2012,04,20,14,57,13.80
2012,04,20,14,58,13.90
2012,04,20,14,59,14.00
2012,04,20,15,00,14.10
2012,04,20,15,01,14.20
2012,04,20,15,02,14.30
2012,04,20,15,03,14.30
2012,04,20,15,04,14.30
2012,04,20,15,05,14.30
2012,04,20,15,06,14.40
2012,04,20,15,07,14.40
2012,04,20,15,08,14.50
2012,04,20,15,09,14.50
2012,04,20,15,10,14.60
2012,04,20,15,11,14.60
2012,04,20,15,12,14.70
2012,04,20,15,13,14.80
2012,04,20,15,14,14.80
2012,04,20,15,15,14.80
2012,04,20,15,16,14.80
2012,04,20,15,17,14.80
2012,04,20,15,18,14.80
2012,04,20,15,19,14.70
2012,04,20,15,20,14.50
2012,04,20,15,21,14.40
2012,04,20,15,22,14.30
2012,04,20,15,23,14.20
2012,04,20,15,24,14.00
2012,04,20,15,25,13.90
2012,04,20,15,26,13.70
2012,04,20,15,27,13.60
2012,04,20,15,28,13.60
2012,04,20,15,29,13.50
2012,04,20,15,30,13.50
2012,04,20,15,31,13.50
2012,04,20,15,32,13.40
2012,04,20,15,33,13.20
2012,04,20,15,34,13.10
2012,04,20,15,35,13.10
2012,04,20,15,36,13.00
2012,04,20,15,37,13.00
2012,04,20,15,38,13.00
2012,04,20,15,39,12.90
2012,04,20,15,40,12.90
2012,04,20,15,41,12.80
2012,04,20,15,42,12.80
2012,04,20,15,43,12.80
2012,04,20,15,44,12.70
2012,04,20,15,45,12.70
2012,04,20,15,46,12.60
2012,04,20,15,47,12.60
2012,04,20,15,48,12.40
2012,04,20,15,49,12.30
2012,04,20,15,50,12.20
2012,04,20,15,51,12.10
2012,04,20,15,52,12.00
2012,04,20,15,53,12.00
2012,04,20,15,54,12.00
2012,04,20,15,55,11.90
2012,04,20,15,56,11.90
2012,04,20,15,57,11.90
2012,04,20,15,58,12.00
2012,04,20,15,59,12.10
2012,04,20,16,00,12.10
2012,04,20,16,01,12.20
2012,04,20,16,02,12.30
2012,04,20,16,03,12.30
2012,04,20,16,04,12.30
2012,04,20,16,05,12.40
2012,04,20,16,06,12.50
2012,04,20,16,07,12.50
2012,04,20,16,08,12.50
2012,04,20,16,09,12.50
2012,04,20,16,10,12.40
2012,04,20,16,11,12.30
2012,04,20,16,12,12.30
2012,04,20,16,13,12.30
2012,04,20,16,14,12.20
2012,04,20,16,15,12.20
2012,04,20,16,16,12.20
2012,04,20,16,17,12.20
2012,04,20,16,18,12.20
2012,04,20,16,19,12.20
2012,04,20,16,20,12.10
2012,04,20,16,21,12.10
2012,04,20,16,22,12.10
2012,04,20,16,23,12.10
2012,04,20,16,24,12.20
2012,04,20,16,25,12.20
2012,04,20,16,26,12.20
2012,04,20,16,27,12.30
2012,04,20,16,28,12.30
2012,04,20,16,29,12.30
2012,04,20,16,30,12.30
2012,04,20,16,31,12.30
2012,04,20,16,32,12.30
2012,04,20,16,33,12.30
2012,04,20,16,34,12.30
2012,04,20,16,35,12.20
2012,04,20,16,36,12.10
2012,04,20,16,37,12.00
2012,04,20,16,38,12.00
2012,04,20,16,39,12.00
2012,04,20,16,40,12.00
2012,04,20,16,41,11.90
2012,04,20,16,42,11.90
2012,04,20,16,43,11.80
2012,04,20,16,44,11.80
2012,04,20,16,45,11.80
2012,04,20,16,46,11.70
2012,04,20,16,47,11.70
2012,04,20,16,48,11.70
2012,04,20,16,49,11.60
2012,04,20,16,50,11.60
2012,04,20,16,51,11.60
2012,04,20,16,52,11.60
2012,04,20,16,53,11.50
2012,04,20,16,54,11.40
2012,04,20,16,55,11.40
2012,04,20,16,56,11.50
2012,04,20,16,57,11.60
2012,04,20,16,58,11.60
2012,04,20,16,59,11.60
2012,04,20,17,00,11.60
2012,04,20,17,01,11.60
2012,04,20,17,02,11.60
2012,04,20,17,03,11.60
2012,04,20,17,04,11.60
2012,04,20,17,05,11.60
2012,04,20,17,06,11.60
2012,04,20,17,07,11.60
2012,04,20,17,08,11.60
2012,04,20,17,09,11.60
2012,04,20,17,10,11.60
2012,04,20,17,11,11.60
2012,04,20,17,12,11.60
2012,04,20,17,13,11.60
2012,04,20,17,14,11.60
2012,04,20,17,15,11.60
2012,04,20,17,16,11.60
2012,04,20,17,17,11.60
2012,04,20,17,18,11.60
2012,04,20,17,19,11.60
2012,04,20,17,20,11.60
2012,04,20,17,21,11.60
2012,04,20,17,22,11.60
2012,04,20,17,23,11.60
2012,04,20,17,24,11.60
2012,04,20,17,25,11.60
2012,04,20,17,26,11.60
2012,04,20,17,27,11.50
2012,04,20,17,28,11.40
2012,04,20,17,29,11.40
2012,04,20,17,30,11.30
2012,04,20,17,31,11.20
2012,04,20,17,32,11.10
2012,04,20,17,33,11.10
2012,04,20,17,34,11.10
2012,04,20,17,35,11.10
2012,04,20,17,36,11.10
2012,04,20,17,37,11.00
2012,04,20,17,38,10.90
2012,04,20,17,39,10.90
2012,04,20,17,40,10.90
2012,04,20,17,41,10.90
2012,04,20,17,42,10.90
2012,04,20,17,43,10.90
2012,04,20,17,44,10.90
2012,04,20,17,45,10.90